COSMOS 2491 DEB, 45129

Orbit data source: Space-Track

COSMOS 2491 DEB, 45129 is space debris in LEO originally from a launch on Wed, 25 Dec 2013 UTC launched from the Plesetsk Missile And Space Complex (PKMTR). Debris objects in space refer to the collection of defunct objects orbiting the Earth. Examples of debris include non-operational satellites, rocket bodies, and fragments generated from explosions, collisions, or faulty payload assembly.

Loading next visibility...
Identifier
45129, 2013-076AB
Orbit
LEO
Last TLE update
22 hours ago
Origin
Manufacturer
TsNIIKhM
Mission
Spacecraft
Bus & Motor
Unknown
Mass
Unknown
Launch date (UTC)
2013-12-25 (11 years ago)
Launch vehicle
Unknown
Launch site
Plesetsk Missile And Space Complex (PKMTR)
Object type
Payload
Rocket body
Debris
Shape & HBR
Unknown
Radar Cross Section
Small (<0.1 m²)

Expand to show TLE details & history

TLE from 22 hours ago
0 COSMOS 2491 DEB
1 45129U 13076AB  25132.38960761  .00001885  00000-0  86494-2 0  9996
2 45129  82.4303  14.6585 0256451 343.1275  16.1402 12.66971346108288
Epoch: 2025-05-12T09:21Z
Definitive object data (Epoch: 2025-05-12T09:21:02.097Z)
Latitude
-0.0001°
Longitude
3.99636°
Altitude
1,205.946 km
Speed
7.34 km/s
True Right ascension
00h 58m 38s
True Declination
0° 00' 00"
Sunlit
Object was in daylight at TLE epoch
Visualization TLE readout
Latitude
37.70208°
Longitude
177.53805°
Altitude
1,587.194 km
Speed
6.993 km/s
Apparent Right ascension
09h 09m 24s
Apparent Declination
10° 25' 03"
Sunlit
Object is in daylight
Visualization observer readout
Local Sidereal Time
15:21:20
Azimuth
279.906° WNW
Elevation
4.403°
Doppler factor
1
Orbital elements
Apogee altitude
1,590.875 km
Perigee altitude
1,192.363 km
Semi-major axis
7,769.756 km
Eccentricity
0.0256451
Inclination
82.4303°
RAAN
14.6585°
Arg. of periapsis
343.1275°
True anomaly
16.98302°
Mean anomaly
16.1402°
Eccentric anomaly
16.55897°
Mean motion
3.16907 °/min
BSTAR
0.0086494
Orbital period
113.6 mins
Loading maneuver chart data...
Loading SW <> Apogee altitude chart data...
Loading historical data...
Loading historical data...
Loading historical data...
Loading historical data...
Loading historical data...
Loading historical data...
Loading historical data...

COSMOS 2491 DEB Visibility forecast

Observer location: undefined°, undefined°

Span
Click to sort rows by Start time (UTC) header in descending order
Start Az.
Max El. time (UTC)
Max El. Az.
Max El.
End time (UTC)
End Az.
12 mins2025-05-13 15:46:39.168Z145.241° SSE2025-05-13 15:52:39.168Z84.604° E30.174°2025-05-13 15:58:39.168Z27.373° NE
12 mins2025-05-13 17:41:39.168Z223.71° SW2025-05-13 17:46:39.168Z280.011° WNW33.753°2025-05-13 17:53:39.168Z352.786° N
9 mins2025-05-14 01:46:39.168Z33.223° NE2025-05-14 01:50:39.168Z62.007° ENE15.8°2025-05-14 01:55:39.168Z95.936° ESE
17 mins2025-05-14 03:38:39.168Z355.799° N2025-05-14 03:46:39.168Z81.769° E44.268°2025-05-14 03:55:39.168Z167.61° S
11 mins2025-05-14 05:35:39.168Z316.584° NNW2025-05-14 05:40:39.168Z276.554° WNW21.687°2025-05-14 05:46:39.168Z234.111° WSW
|